Hagerstown, MD

12:14 PM EST on November 17, 2019 (GMT -0500)
Hagerstown Regional-Henson

Weather History for KHGR - September, 2019

Change the Weather History Date:

Monday, September 9, 2019

  Actual Average Record
Temperature  
Mean Temperature 73 °F 68 °F  
Max Temperature 80 °F 78 °F 94 °F (2016)
Min Temperature 65 °F 59 °F 49 °F (2017)
Degree Days  
Heating Degree Days 0 1  
Month to date heating degree days 0 4  
Since 1 July heating degree days 0 9  
Cooling Degree Days 8 4  
Month to date cooling degree days 75 46  
Year to date cooling degree days 1284 914  
Growing Degree Days 22 (Base 50)    
Moisture  
Dew Point 58 °F    
Average Humidity 63    
Maximum Humidity 78    
Minimum Humidity 48    
Precipitation  
Precipitation T in 0.10 in 2.89 in (2018)
Month to date precipitation 0.05 0.88  
Year to date precipitation 28.42 27.51  
Sea Level Pressure  
Sea Level Pressure 30.22 in    
Wind  
Wind Speed 3 mph (NNW)    
Max Wind Speed 9 mph    
Max Gust Speed 11 mph    
Visibility 10 miles    
Events Rain    
T = Trace of Precipitation, MM = Missing Value Source: NWS Daily Summary

Daily Weather History Graph

Daily Weather History Graph

Search for Another Location

Airport or City:

Astronomy

Sep. 09, 2019 Rise Set
Actual Time 6:46 AM EDT 7:29 PM EDT
Civil Twilight 6:18 AM EDT 7:56 PM EDT
Nautical Twilight 5:46 AM EDT 8:29 PM EDT
Astronomical Twilight 5:13 AM EDT 9:02 PM EDT
Moon 5:22 PM EDT (9/9) 2:16 AM EDT (9/9)
Length of Visible Light 13h 37m
Length of Day
12h 43m
Waxing Gibbous, 83% of the Moon is Illuminated
Sep 9
Waxing Gibbous
Sep 14
Full
Sep 21
Last Quarter
Sep 28
New
Oct 5
First Quarter

Hourly Weather History & Observations

Time (EDT) Temp. Dew Point Humidity Pressure Visibility Wind Dir Wind Speed Gust Speed Precip Events Conditions
12:53 AM 70.0 °F 55.9 °F 61% 30.16 in 10.0 mi Calm Calm - N/A   Overcast
1:53 AM 70.0 °F 55.9 °F 61% 30.16 in 10.0 mi Calm Calm - N/A   Mostly Cloudy
2:53 AM 66.9 °F 57.0 °F 70% 30.16 in 10.0 mi Calm Calm - N/A   Scattered Clouds
3:53 AM 68.0 °F 55.9 °F 65% 30.16 in 10.0 mi Calm Calm - N/A   Clear
4:53 AM 66.9 °F 57.9 °F 73% 30.17 in 10.0 mi Calm Calm - N/A   Mostly Cloudy
5:53 AM 64.9 °F 57.9 °F 78% 30.19 in 10.0 mi NNW 4.6 mph - N/A   Overcast
6:53 AM 66.0 °F 57.9 °F 75% 30.20 in 10.0 mi Calm Calm - N/A   Overcast
7:53 AM 64.9 °F 59.0 °F 81% 30.22 in 9.0 mi NNW 5.8 mph - 0.00 in Rain Light Rain
8:53 AM 66.9 °F 59.0 °F 76% 30.24 in 10.0 mi North 5.8 mph - 0.00 in   Overcast
9:53 AM 69.1 °F 57.9 °F 68% 30.25 in 10.0 mi North 3.5 mph - N/A   Overcast
10:53 AM 71.1 °F 57.9 °F 63% 30.25 in 10.0 mi NNW 4.6 mph - N/A   Mostly Cloudy
11:53 AM 73.0 °F 57.9 °F 59% 30.25 in 10.0 mi Calm Calm - N/A   Overcast
12:53 PM 75.9 °F 57.9 °F 54% 30.24 in 10.0 mi Calm Calm - N/A   Overcast
1:53 PM 78.1 °F 57.9 °F 50% 30.23 in 10.0 mi SW 5.8 mph - N/A   Mostly Cloudy
2:53 PM 79.0 °F 57.0 °F 47% 30.23 in 10.0 mi SW 6.9 mph - N/A   Overcast
3:53 PM 79.0 °F 57.9 °F 48% 30.22 in 10.0 mi West 4.6 mph - N/A   Overcast
4:53 PM 79.0 °F 57.9 °F 48% 30.22 in 10.0 mi West 5.8 mph - N/A   Overcast
5:53 PM 79.0 °F 57.9 °F 48% 30.22 in 10.0 mi Calm Calm - N/A   Scattered Clouds
6:53 PM 78.1 °F 59.0 °F 52% 30.22 in 10.0 mi ESE 3.5 mph - N/A   Clear
7:53 PM 75.0 °F 59.0 °F 57% 30.23 in 10.0 mi SE 3.5 mph - N/A   Clear
8:53 PM 73.9 °F 60.1 °F 62% 30.26 in 10.0 mi Calm Calm - N/A   Clear
9:53 PM 71.1 °F 61.0 °F 70% 30.27 in 10.0 mi East 5.8 mph - N/A   Clear
10:53 PM 69.1 °F 61.0 °F 75% 30.27 in 10.0 mi East 6.9 mph - N/A   Clear